| time (UTC) | temp F | wind direction | speed MPH | gust MPH | rain 1hr in | rain 24hr in | rain mn in | humidity % | barometer mb |
| 20260502200507 | 54 | 284 | 3.0 | 5.0 | 0.00 | 0.00 | 0.00 | 55 | 1029.2 |
| 20260502200005 | 55 | 252 | 3.0 | 3.0 | 0.00 | 0.00 | 0.00 | 55 | 1029.1 |
| 20260502195502 | 53 | 290 | 7.0 | 8.0 | 0.00 | 0.00 | 0.00 | 56 | 1029.2 |
| 20260502194957 | 55 | 306 | 4.0 | 5.0 | 0.00 | 0.00 | 0.00 | 55 | 1029.2 |
| 20260502194455 | 53 | 209 | 1.0 | 2.0 | 0.00 | 0.00 | 0.00 | 57 | 1029.6 |
| 20260502193950 | 53 | 284 | 5.0 | 6.0 | 0.00 | 0.00 | 0.00 | 57 | 1029.5 |
| 20260502193448 | 52 | 224 | 2.0 | 2.0 | 0.00 | 0.00 | 0.00 | 58 | 1029.6 |
| 20260502192944 | 53 | 216 | 5.0 | 7.0 | 0.00 | 0.00 | 0.00 | 58 | 1029.4 |
| 20260502192441 | 53 | 268 | 0.0 | 0.0 | 0.00 | 0.00 | 0.00 | 57 | 1029.4 |
| 20260502191938 | 53 | 262 | 2.0 | 3.0 | 0.00 | 0.00 | 0.00 | 58 | 1029.4 |
| 20260502191435 | 52 | 298 | 2.0 | 3.0 | 0.00 | 0.00 | 0.00 | 59 | 1029.6 |
| 20260502190933 | 53 | 287 | 3.0 | 3.0 | 0.00 | 0.00 | 0.00 | 58 | 1029.6 |
| 20260502190430 | 54 | 316 | 2.0 | 2.0 | 0.00 | 0.00 | 0.00 | 59 | 1029.6 |
| 20260502185926 | 53 | 323 | 2.0 | 2.0 | 0.00 | 0.00 | 0.00 | 60 | 1029.7 |
| 20260502185421 | 52 | 49 | 1.0 | 1.0 | 0.00 | 0.00 | 0.00 | 62 | 1029.7 |
| 20260502184919 | 51 | 59 | 1.0 | 1.0 | 0.00 | 0.00 | 0.00 | 63 | 1030.0 |
| 20260502184414 | 50 | 53 | 1.0 | 1.0 | 0.00 | 0.00 | 0.00 | 64 | 1029.8 |
| 20260502183911 | 51 | 76 | 2.0 | 2.0 | 0.00 | 0.00 | 0.00 | 64 | 1030.1 |
| 20260502183407 | 50 | 96 | 1.0 | 1.0 | 0.00 | 0.00 | 0.00 | 66 | 1030.1 |
| 20260502182903 | 50 | 87 | 2.0 | 3.0 | 0.00 | 0.00 | 0.00 | 67 | 1030.2 |
| 20260502182358 | 50 | 88 | 3.0 | 3.0 | 0.00 | 0.00 | 0.00 | 67 | 1030.1 |
| 20260502181855 | 49 | 305 | 1.0 | 2.0 | 0.00 | 0.00 | 0.00 | 69 | 1030.1 |
| 20260502181353 | 49 | 276 | 3.0 | 3.0 | 0.00 | 0.00 | 0.00 | 70 | 1030.3 |
| 20260502180851 | 48 | 287 | 0.0 | 0.0 | 0.00 | 0.00 | 0.00 | 71 | 1030.2 |
| 20260502180348 | 48 | 310 | 1.0 | 1.0 | 0.00 | 0.00 | 0.00 | 72 | 1030.3 |
| 20260502170306 | 46 | 270 | 1.0 | 2.0 | 0.00 | 0.00 | 0.00 | 81 | 1030.6 |
| 20260502164255 | 45 | 274 | 1.0 | 2.0 | 0.00 | 0.00 | 0.00 | 83 | 1030.4 |
| 20260502163750 | 45 | 268 | 0.0 | 1.0 | 0.00 | 0.00 | 0.00 | 83 | 1030.3 |
| 20260502163247 | 45 | 274 | 0.0 | 0.0 | 0.00 | 0.00 | 0.00 | 83 | 1030.3 |
| 20260502162744 | 44 | 271 | 0.0 | 0.0 | 0.00 | 0.00 | 0.00 | 83 | 1030.3 |
| 20260502162240 | 44 | 229 | 0.0 | 0.0 | 0.00 | 0.00 | 0.00 | 83 | 1030.1 |
| 20260502161737 | 44 | 235 | 0.0 | 1.0 | 0.00 | 0.00 | 0.00 | 84 | 1030.3 |
| 20260502161233 | 44 | 252 | 0.0 | 0.0 | 0.00 | 0.00 | 0.00 | 84 | 1030.2 |
| 20260502160732 | 44 | 264 | 0.0 | 0.0 | 0.00 | 0.00 | 0.00 | 84 | 1030.3 |
| 20260502160231 | 44 | 262 | 2.0 | 2.0 | 0.00 | 0.00 | 0.00 | 84 | 1030.1 |
| 20260502152155 | 43 | 280 | 0.0 | 0.0 | 0.00 | 0.00 | 0.00 | 85 | 1029.7 |
| 20260502151652 | 43 | 270 | 3.0 | 3.0 | 0.00 | 0.00 | 0.00 | 85 | 1029.6 |
| 20260502151149 | 43 | 246 | 4.0 | 5.0 | 0.00 | 0.00 | 0.00 | 85 | 1029.6 |
| 20260502150647 | 44 | 271 | 6.0 | 8.0 | 0.00 | 0.00 | 0.00 | 85 | 1029.5 |
| 20260502150143 | 44 | 243 | 6.0 | 7.0 | 0.00 | 0.00 | 0.00 | 85 | 1029.4 |
| 20260502140106 | 43 | 305 | 0.0 | 0.0 | 0.00 | 0.00 | 0.00 | 85 | 1029.4 |
| 20260502130532 | 44 | 278 | 3.0 | 3.0 | 0.00 | 0.00 | 0.00 | 84 | 1028.4 |
| 20260502123515 | 43 | 338 | 0.0 | 0.0 | 0.00 | 0.00 | 0.00 | 83 | 1028.2 |
| 20260502123011 | 43 | 338 | 0.0 | 0.0 | 0.00 | 0.00 | 0.00 | 83 | 1028.1 |
| 20260502122508 | 43 | 338 | 0.0 | 0.0 | 0.00 | 0.00 | 0.00 | 83 | 1027.9 |
| 20260502122005 | 43 | 339 | 0.0 | 0.0 | 0.00 | 0.00 | 0.00 | 83 | 1027.9 |
| 20260502121502 | 43 | 339 | 0.0 | 0.0 | 0.00 | 0.00 | 0.00 | 82 | 1027.9 |
| 20260502121000 | 43 | 339 | 0.0 | 1.0 | 0.00 | 0.00 | 0.00 | 82 | 1028.1 |
| 20260502120456 | 43 | 339 | 0.0 | 1.0 | 0.00 | 0.00 | 0.00 | 82 | 1028.1 |
| 20260502115450 | 43 | 322 | 0.0 | 0.0 | 0.00 | 0.00 | 0.00 | 81 | 1028.1 |
| 20260502114946 | 43 | 319 | 0.0 | 0.0 | 0.00 | 0.00 | 0.00 | 81 | 1028.1 |
| 20260502114443 | 43 | 315 | 0.0 | 0.0 | 0.00 | 0.00 | 0.00 | 81 | 1027.9 |
| 20260502113941 | 43 | 314 | 0.0 | 0.0 | 0.00 | 0.00 | 0.00 | 81 | 1027.9 |
| 20260502113438 | 43 | 310 | 0.0 | 0.0 | 0.00 | 0.00 | 0.00 | 80 | 1027.8 |
| 20260502112937 | 44 | 304 | 0.0 | 0.0 | 0.00 | 0.00 | 0.00 | 80 | 1028.1 |
| 20260502112434 | 44 | 302 | 0.0 | 0.0 | 0.00 | 0.00 | 0.00 | 79 | 1027.8 |
| 20260502111931 | 44 | 288 | 3.0 | 3.0 | 0.00 | 0.00 | 0.00 | 79 | 1027.8 |
| 20260502111428 | 44 | 306 | 3.0 | 3.0 | 0.00 | 0.00 | 0.00 | 78 | 1027.6 |
| 20260502110926 | 45 | 274 | 0.0 | 0.0 | 0.00 | 0.00 | 0.00 | 77 | 1027.9 |
| 20260502110423 | 45 | 292 | 1.0 | 1.0 | 0.00 | 0.00 | 0.00 | 76 | 1027.7 |
| 20260502105920 | 45 | 324 | 3.0 | 3.0 | 0.00 | 0.00 | 0.00 | 76 | 1027.8 |
| 20260502105417 | 45 | 332 | 3.0 | 5.0 | 0.00 | 0.00 | 0.00 | 75 | 1027.7 |
| 20260502104916 | 45 | 333 | 1.0 | 2.0 | 0.00 | 0.00 | 0.00 | 75 | 1027.8 |
| 20260502104412 | 46 | 336 | 1.0 | 2.0 | 0.00 | 0.00 | 0.00 | 74 | 1027.6 |
| 20260502103909 | 46 | 351 | 0.0 | 0.0 | 0.00 | 0.00 | 0.00 | 73 | 1027.8 |
| 20260502103408 | 46 | 8 | 1.0 | 2.0 | 0.00 | 0.00 | 0.00 | 72 | 1027.5 |
| 20260502102904 | 46 | 25 | 0.0 | 0.0 | 0.00 | 0.00 | 0.00 | 72 | 1027.5 |
| 20260502102400 | 46 | 60 | 0.0 | 0.0 | 0.00 | 0.00 | 0.00 | 71 | 1027.5 |
| 20260502101858 | 46 | 61 | 0.0 | 0.0 | 0.00 | 0.00 | 0.00 | 72 | 1027.2 |
| 20260502101356 | 46 | 60 | 0.0 | 1.0 | 0.00 | 0.00 | 0.00 | 73 | 1027.1 |
| 20260502100854 | 46 | 59 | 0.0 | 0.0 | 0.00 | 0.00 | 0.00 | 73 | 1027.3 |
| 20260502100353 | 45 | 59 | 0.0 | 0.0 | 0.00 | 0.00 | 0.00 | 74 | 1027.2 |
| 20260502091327 | 46 | 85 | 0.0 | 0.0 | 0.00 | 0.00 | 0.00 | 75 | 1027.0 |
| 20260502090825 | 46 | 70 | 0.0 | 0.0 | 0.00 | 0.00 | 0.00 | 75 | 1026.9 |
| 20260502090321 | 45 | 65 | 1.0 | 1.0 | 0.00 | 0.00 | 0.00 | 75 | 1027.1 |
| 20260502071216 | 47 | 74 | 0.0 | 0.0 | 0.00 | 0.00 | 0.00 | 63 | 1026.4 |
| 20260502070715 | 47 | 33 | 1.0 | 2.0 | 0.00 | 0.00 | 0.00 | 63 | 1026.4 |
| 20260502070212 | 47 | 38 | 0.0 | 0.0 | 0.00 | 0.00 | 0.00 | 63 | 1026.4 |
| 20260502065710 | 47 | 43 | 0.0 | 0.0 | 0.00 | 0.00 | 0.00 | 63 | 1026.4 |
| 20260502065208 | 47 | 62 | 0.0 | 0.0 | 0.00 | 0.00 | 0.00 | 63 | 1026.6 |
| 20260502064706 | 47 | 58 | 0.0 | 0.0 | 0.00 | 0.00 | 0.00 | 62 | 1026.5 |
| 20260502064203 | 47 | 67 | 0.0 | 0.0 | 0.00 | 0.00 | 0.00 | 62 | 1026.3 |
| 20260502063701 | 47 | 109 | 1.0 | 2.0 | 0.00 | 0.00 | 0.00 | 62 | 1026.4 |
| 20260502063158 | 47 | 113 | 1.0 | 3.0 | 0.00 | 0.00 | 0.00 | 62 | 1026.4 |
| 20260502062655 | 47 | 113 | 1.0 | 3.0 | 0.00 | 0.00 | 0.00 | 62 | 1026.5 |
| 20260502062153 | 47 | 112 | 0.0 | 0.0 | 0.00 | 0.00 | 0.00 | 62 | 1026.6 |
| 20260502061651 | 47 | 86 | 0.0 | 0.0 | 0.00 | 0.00 | 0.00 | 62 | 1026.9 |
| 20260502061148 | 47 | 91 | 0.0 | 0.0 | 0.00 | 0.00 | 0.00 | 63 | 1026.7 |
| 20260502060648 | 48 | 106 | 0.0 | 0.0 | 0.00 | 0.00 | 0.00 | 63 | 1026.7 |
| 20260502060145 | 48 | 95 | 3.0 | 3.0 | 0.00 | 0.00 | 0.00 | 62 | 1026.6 |
| 20260502055643 | 48 | 110 | 0.0 | 0.0 | 0.00 | 0.23 | 0.23 | 62 | 1026.7 |
| 20260502055141 | 47 | 86 | 0.0 | 0.0 | 0.00 | 0.23 | 0.23 | 62 | 1027.1 |
| 20260502054640 | 48 | 70 | 0.0 | 0.0 | 0.00 | 0.23 | 0.23 | 62 | 1027.1 |
| 20260502054136 | 48 | 92 | 0.0 | 0.0 | 0.00 | 0.23 | 0.23 | 62 | 1027.1 |
| 20260502053634 | 48 | 99 | 0.0 | 0.0 | 0.00 | 0.23 | 0.23 | 61 | 1027.1 |
| 20260502053131 | 47 | 124 | 0.0 | 0.0 | 0.00 | 0.23 | 0.23 | 61 | 1027.0 |
| 20260502052629 | 47 | 110 | 0.0 | 0.0 | 0.00 | 0.23 | 0.23 | 61 | 1027.1 |
| 20260502052127 | 47 | 113 | 0.0 | 0.0 | 0.00 | 0.23 | 0.23 | 61 | 1026.7 |
| 20260502051625 | 47 | 109 | 0.0 | 0.0 | 0.00 | 0.23 | 0.23 | 61 | 1027.0 |
| 20260502051123 | 48 | 116 | 0.0 | 2.0 | 0.00 | 0.23 | 0.23 | 61 | 1026.9 |
| 20260502050619 | 48 | 102 | 0.0 | 1.0 | 0.00 | 0.23 | 0.23 | 61 | 1027.0 |
| 20260502050115 | 48 | 117 | 1.0 | 5.0 | 0.00 | 0.23 | 0.23 | 61 | 1026.7 |
| 20260502045612 | 47 | 96 | 0.0 | 1.0 | 0.00 | 0.23 | 0.23 | 61 | 1026.7 |
| 20260502045109 | 48 | 101 | 0.0 | 0.0 | 0.00 | 0.23 | 0.23 | 61 | 1026.9 |
| 20260502044605 | 48 | 71 | 0.0 | 0.0 | 0.00 | 0.23 | 0.23 | 61 | 1027.1 |
| 20260502044102 | 48 | 106 | 0.0 | 1.0 | 0.00 | 0.23 | 0.23 | 61 | 1027.1 |
| 20260502043600 | 48 | 84 | 0.0 | 0.0 | 0.00 | 0.23 | 0.23 | 60 | 1027.0 |
| 20260502043057 | 48 | 116 | 1.0 | 2.0 | 0.00 | 0.23 | 0.23 | 61 | 1026.6 |
| 20260502042551 | 47 | 94 | 0.0 | 0.0 | 0.00 | 0.23 | 0.23 | 61 | 1026.6 |
| 20260502042049 | 47 | 123 | 8.0 | 9.0 | 0.00 | 0.23 | 0.23 | 60 | 1026.4 |
| 20260502041546 | 48 | 100 | 6.0 | 9.0 | 0.00 | 0.23 | 0.23 | 60 | 1026.5 |
| 20260502041043 | 48 | 116 | 9.0 | 14.0 | 0.00 | 0.23 | 0.23 | 60 | 1026.3 |
| 20260502040539 | 47 | 73 | 2.0 | 5.0 | 0.00 | 0.23 | 0.23 | 60 | 1026.1 |
| 20260502040037 | 47 | 133 | 12.0 | 16.0 | 0.00 | 0.23 | 0.23 | 60 | 1025.9 |
| 20260502035532 | 47 | 79 | 6.0 | 9.0 | 0.00 | 0.23 | 0.23 | 60 | 1026.0 |
| 20260502035030 | 47 | 109 | 6.0 | 9.0 | 0.00 | 0.23 | 0.23 | 60 | 1026.0 |
| 20260502034528 | 48 | 98 | 5.0 | 8.0 | 0.00 | 0.23 | 0.23 | 60 | 1026.0 |
| 20260502034026 | 47 | 92 | 2.0 | 5.0 | 0.00 | 0.23 | 0.23 | 61 | 1025.9 |
| 20260502033524 | 47 | 92 | 2.0 | 5.0 | 0.00 | 0.23 | 0.23 | 61 | 1025.8 |
| 20260502033021 | 47 | 116 | 6.0 | 9.0 | 0.00 | 0.23 | 0.23 | 61 | 1025.7 |
| 20260502032517 | 47 | 126 | 2.0 | 3.0 | 0.00 | 0.23 | 0.23 | 61 | 1025.9 |
| 20260502032014 | 47 | 105 | 5.0 | 9.0 | 0.00 | 0.23 | 0.23 | 61 | 1025.4 |
| 20260502031512 | 47 | 125 | 9.0 | 14.0 | 0.00 | 0.23 | 0.23 | 61 | 1025.7 |
| 20260502031010 | 47 | 108 | 8.0 | 11.0 | 0.00 | 0.23 | 0.23 | 61 | 1025.3 |
| 20260502030508 | 47 | 101 | 7.0 | 10.0 | 0.00 | 0.23 | 0.23 | 61 | 1025.4 |
| 20260502030006 | 47 | 83 | 7.0 | 13.0 | 0.00 | 0.23 | 0.23 | 61 | 1025.2 |
| 20260502025503 | 48 | 133 | 0.0 | 1.0 | 0.00 | 0.23 | 0.23 | 61 | 1025.1 |
| 20260502025001 | 47 | 99 | 0.0 | 1.0 | 0.00 | 0.23 | 0.23 | 61 | 1024.8 |
| 20260502024458 | 47 | 106 | 8.0 | 14.0 | 0.00 | 0.23 | 0.23 | 61 | 1024.9 |
| 20260502023956 | 47 | 60 | 0.0 | 1.0 | 0.00 | 0.23 | 0.23 | 61 | 1024.8 |
| 20260502023453 | 47 | 101 | 2.0 | 3.0 | 0.00 | 0.23 | 0.23 | 61 | 1024.6 |
| 20260502022951 | 47 | 118 | 1.0 | 2.0 | 0.00 | 0.23 | 0.23 | 61 | 1024.6 |
| 20260502022447 | 47 | 92 | 6.0 | 9.0 | 0.00 | 0.23 | 0.23 | 61 | 1024.6 |
| 20260502021944 | 47 | 83 | 1.0 | 3.0 | 0.00 | 0.23 | 0.23 | 61 | 1024.5 |
| 20260502021442 | 47 | 102 | 5.0 | 7.0 | 0.00 | 0.23 | 0.23 | 61 | 1024.3 |
| 20260502020938 | 47 | 81 | 5.0 | 11.0 | 0.00 | 0.23 | 0.23 | 60 | 1024.2 |
| 20260502020437 | 48 | 110 | 10.0 | 16.0 | 0.00 | 0.23 | 0.23 | 60 | 1024.2 |
| 20260502015933 | 48 | 99 | 8.0 | 10.0 | 0.00 | 0.23 | 0.23 | 60 | 1024.2 |
| 20260502015431 | 48 | 62 | 1.0 | 2.0 | 0.00 | 0.23 | 0.23 | 60 | 1024.1 |
| 20260502014927 | 48 | 121 | 5.0 | 9.0 | 0.00 | 0.23 | 0.23 | 60 | 1024.1 |
| 20260502014424 | 48 | 83 | 7.0 | 10.0 | 0.00 | 0.23 | 0.23 | 60 | 1024.1 |
| 20260502013920 | 48 | 80 | 7.0 | 13.0 | 0.00 | 0.23 | 0.23 | 60 | 1024.0 |
| 20260502013416 | 48 | 98 | 7.0 | 15.0 | 0.00 | 0.23 | 0.23 | 60 | 1023.9 |
| 20260502012913 | 48 | 128 | 9.0 | 13.0 | 0.00 | 0.23 | 0.23 | 60 | 1024.1 |
| 20260502012411 | 49 | 107 | 9.0 | 13.0 | 0.00 | 0.23 | 0.23 | 59 | 1023.9 |
| 20260502011908 | 49 | 90 | 7.0 | 10.0 | 0.00 | 0.23 | 0.23 | 59 | 1023.7 |
| 20260502011404 | 49 | 92 | 4.0 | 6.0 | 0.00 | 0.23 | 0.23 | 59 | 1023.7 |
| 20260502010901 | 50 | 108 | 2.0 | 5.0 | 0.00 | 0.23 | 0.23 | 59 | 1023.5 |
| 20260502010357 | 50 | 101 | 2.0 | 5.0 | 0.00 | 0.23 | 0.23 | 59 | 1023.6 |
| 20260502005854 | 50 | 107 | 4.0 | 7.0 | 0.00 | 0.23 | 0.23 | 58 | 1023.7 |
| 20260502005352 | 50 | 92 | 6.0 | 8.0 | 0.00 | 0.23 | 0.23 | 58 | 1023.4 |
| 20260502004849 | 50 | 126 | 10.0 | 13.0 | 0.00 | 0.23 | 0.23 | 58 | 1023.4 |
| 20260502004345 | 50 | 95 | 8.0 | 11.0 | 0.00 | 0.23 | 0.23 | 58 | 1023.5 |
| 20260502003843 | 50 | 113 | 11.0 | 17.0 | 0.00 | 0.23 | 0.23 | 57 | 1023.5 |
| 20260502003340 | 50 | 94 | 3.0 | 7.0 | 0.00 | 0.23 | 0.23 | 56 | 1023.1 |
| 20260502002836 | 51 | 55 | 10.0 | 15.0 | 0.00 | 0.23 | 0.23 | 56 | 1023.1 |
| 20260502002334 | 51 | 104 | 13.0 | 22.0 | 0.00 | 0.23 | 0.23 | 56 | 1023.4 |
| 20260502001831 | 51 | 107 | 11.0 | 16.0 | 0.00 | 0.23 | 0.23 | 55 | 1023.1 |
| 20260502001329 | 51 | 71 | 14.0 | 20.0 | 0.00 | 0.23 | 0.23 | 55 | 1023.0 |
| 20260502000826 | 52 | 120 | 11.0 | 13.0 | 0.00 | 0.23 | 0.23 | 54 | 1023.0 |
| 20260502000325 | 52 | 102 | 12.0 | 15.0 | 0.00 | 0.23 | 0.23 | 54 | 1022.9 |
| 20260501235820 | 52 | 96 | 7.0 | 14.0 | 0.00 | 0.23 | 0.23 | 54 | 1022.7 |
| 20260501235316 | 52 | 109 | 12.0 | 14.0 | 0.00 | 0.23 | 0.23 | 54 | 1022.8 |
| 20260501234811 | 52 | 106 | 12.0 | 18.0 | 0.00 | 0.23 | 0.23 | 54 | 1022.8 |
| 20260501234309 | 53 | 104 | 5.0 | 9.0 | 0.00 | 0.23 | 0.23 | 54 | 1022.7 |
| 20260501233807 | 52 | 103 | 14.0 | 17.0 | 0.00 | 0.23 | 0.23 | 54 | 1022.7 |
| 20260501233304 | 53 | 115 | 16.0 | 24.0 | 0.00 | 0.23 | 0.23 | 54 | 1022.4 |
| 20260501232759 | 53 | 92 | 12.0 | 17.0 | 0.00 | 0.23 | 0.23 | 53 | 1022.4 |
| 20260501232256 | 54 | 116 | 9.0 | 16.0 | 0.00 | 0.23 | 0.23 | 52 | 1022.2 |
| 20260501231754 | 54 | 69 | 2.0 | 6.0 | 0.00 | 0.23 | 0.23 | 54 | 1022.1 |
| 20260501231252 | 54 | 102 | 7.0 | 13.0 | 0.00 | 0.23 | 0.23 | 54 | 1022.2 |
| 20260501230750 | 53 | 71 | 9.0 | 16.0 | 0.00 | 0.23 | 0.23 | 53 | 1022.1 |
| 20260501230249 | 53 | 130 | 11.0 | 15.0 | 0.00 | 0.23 | 0.23 | 54 | 1022.1 |
| 20260501225746 | 53 | 112 | 17.0 | 21.0 | 0.00 | 0.23 | 0.23 | 54 | 1022.1 |
| 20260501225243 | 54 | 68 | 14.0 | 17.0 | 0.00 | 0.23 | 0.23 | 53 | 1022.1 |
| 20260501224739 | 55 | 68 | 2.0 | 6.0 | 0.00 | 0.23 | 0.23 | 52 | 1021.9 |
| 20260501224237 | 54 | 143 | 9.0 | 13.0 | 0.00 | 0.23 | 0.23 | 53 | 1022.2 |
| 20260501223732 | 54 | 114 | 14.0 | 21.0 | 0.00 | 0.23 | 0.23 | 54 | 1021.9 |
| 20260501223229 | 54 | 117 | 13.0 | 17.0 | 0.00 | 0.23 | 0.23 | 53 | 1022.1 |
| 20260501222725 | 54 | 88 | 10.0 | 16.0 | 0.00 | 0.23 | 0.23 | 53 | 1021.7 |
| 20260501222223 | 54 | 116 | 2.0 | 5.0 | 0.00 | 0.23 | 0.23 | 55 | 1022.1 |
| 20260501221720 | 54 | 109 | 17.0 | 22.0 | 0.00 | 0.23 | 0.23 | 55 | 1021.6 |
| 20260501221217 | 54 | 121 | 10.0 | 15.0 | 0.00 | 0.23 | 0.23 | 55 | 1021.8 |
| 20260501220714 | 55 | 70 | 7.0 | 13.0 | 0.00 | 0.23 | 0.23 | 52 | 1021.7 |
| 20260501220211 | 56 | 110 | 15.0 | 18.0 | 0.00 | 0.23 | 0.23 | 51 | 1021.7 |
| 20260501215708 | 55 | 131 | 10.0 | 16.0 | 0.00 | 0.23 | 0.23 | 51 | 1021.6 |
| 20260501215203 | 55 | 107 | 6.0 | 15.0 | 0.00 | 0.23 | 0.23 | 52 | 1021.7 |
| 20260501214658 | 55 | 106 | 17.0 | 22.0 | 0.00 | 0.23 | 0.23 | 52 | 1021.9 |
| 20260501214154 | 55 | 84 | 4.0 | 8.0 | 0.00 | 0.23 | 0.23 | 53 | 1021.9 |
| 20260501213652 | 55 | 128 | 6.0 | 8.0 | 0.00 | 0.23 | 0.23 | 54 | 1021.9 |
| 20260501213147 | 55 | 37 | 8.0 | 10.0 | 0.00 | 0.23 | 0.23 | 53 | 1022.1 |
| 20260501212644 | 55 | 62 | 9.0 | 11.0 | 0.00 | 0.23 | 0.23 | 52 | 1021.8 |
| 20260501212141 | 56 | 84 | 5.0 | 11.0 | 0.00 | 0.23 | 0.23 | 53 | 1022.4 |
| 20260501211638 | 57 | 95 | 1.0 | 3.0 | 0.00 | 0.23 | 0.23 | 52 | 1021.8 |
| 20260501211135 | 56 | 106 | 12.0 | 16.0 | 0.00 | 0.23 | 0.23 | 52 | 1021.9 |
| 20260501210632 | 53 | 38 | 7.0 | 10.0 | 0.00 | 0.23 | 0.23 | 55 | 1022.2 |
| 20260501210128 | 53 | 31 | 10.0 | 14.0 | 0.00 | 0.23 | 0.23 | 55 | 1021.9 |
| 20260501205625 | 53 | 95 | 10.0 | 13.0 | 0.00 | 0.23 | 0.23 | 54 | 1022.2 |
| 20260501205123 | 53 | 74 | 3.0 | 7.0 | 0.00 | 0.23 | 0.23 | 55 | 1022.1 |
| 20260501204619 | 53 | 60 | 11.0 | 15.0 | 0.00 | 0.23 | 0.23 | 56 | 1022.3 |
| 20260501204115 | 53 | 84 | 11.0 | 14.0 | 0.00 | 0.23 | 0.23 | 55 | 1022.1 |
| 20260501203612 | 53 | 109 | 1.0 | 5.0 | 0.00 | 0.23 | 0.23 | 56 | 1022.4 |
| 20260501203109 | 53 | 106 | 11.0 | 15.0 | 0.00 | 0.23 | 0.23 | 54 | 1022.4 |
| 20260501202606 | 53 | 85 | 0.0 | 0.0 | 0.00 | 0.23 | 0.23 | 55 | 1022.3 |
| 20260501202103 | 53 | 60 | 0.0 | 1.0 | 0.00 | 0.23 | 0.23 | 55 | 1022.2 |
| 20260501201600 | 53 | 46 | 2.0 | 5.0 | 0.00 | 0.23 | 0.23 | 56 | 1022.4 |
| 20260501201056 | 51 | 92 | 9.0 | 14.0 | 0.00 | 0.23 | 0.23 | 56 | 1022.3 |